Location: Banska Bystrica
(0.0000°N, 19.1500°E)
Time: 20:53:00
(UTC+02:00)

Cosmos 1680 Rocket - Pass Details

Date: 19 February 2019
Orbit: 760 x 780 km, 74.1° (Epoch: 19 October)

Event Time Altitude Azimuth Distance (km) Brightness Sun altitude
Rises 19:43:37 0° 193° (SSW) 3,255 7.1 -26.1°
Reaches altitude 10° 19:46:00 10° 193° (SSW) 2,328 6.3 -26.6°
Enters shadow 19:50:54 77° 200° (SSW) 801 3.5 -27.8°
